Temperature
21 20 20 20 20 20 21 21 21 21 21 21 20 20 20 20 19 19 19 19 19 19 19 19 19 19 19 19 19 19 19 19 19 18 18 18 17 17 17 17 17 17 17
22 20 20 20 20 20 21 21 21 21 21 21 21 20 20 20 20 20 19 19 19 19 19 19 19 19 19 19 19 19 19 19 19 18 18 18 17 18 18 17 17 17 17
22 21 20 20 20 20 20 21 21 21 21 21 21 21 20 20 20 20 20 20 20 20 19 20 20 20 20 20 20 20 19 19 19 19 18 18 18 18 18 18 18 18 17
22 21 20 20 20 20 20 21 21 21 21 21 21 21 20 20 20 20 20 20 20 20 20 20 20 20 20 20 20 19 19 19 19 19 18 18 18 18 18 18 18 18 18
22 21 20 20 20 20 21 21 21 21 21 21 21 21 20 20 20 20 20 20 20 20 20 20 20 20 20 20 19 19 19 19 19 18 18 18 18 18 18 18 18 18 18
22 21 20 20 20 21 21 21 21 21 21 21 21 21 20 20 20 20 20 20 20 20 20 20 20 20 20 19 19 19 19 18 18 18 18 18 18 18 18 18 18 18 18
22 21 21 20 21 21 21 21 21 21 21 21 21 20 20 20 20 20 20 20 20 20 20 20 20 20 19 19 19 19 19 18 18 18 18 18 18 18 18 18 18 18 18
22 21 21 20 21 21 21 21 21 21 21 21 20 20 20 20 20 20 20 20 20 20 20 20 20 19 19 19 19 19 19 18 18 18 18 18 18 18 18 17 17 17 18
22 21 21 20 20 20 21 21 21 21 21 20 20 20 20 20 20 20 20 20 20 20 19 19 19 19 19 19 19 19 19 18 18 18 18 18 18 18 18 17 17 17 17
21 21 21 20 20 20 20 20 20 20 20 20 20 20 20 20 20 20 19 19 19 19 19 19 19 19 19 19 19 18 18 18 18 18 18 18 18 18 18 17 17 17 17
21 21 21 20 20 20 20 20 20 20 20 20 20 20 19 19 19 19 19 19 19 19 19 19 19 19 19 19 19 18 18 18 18 18 18 18 18 18 18 17 17 17 17
21 21 20 20 20 20 20 20 20 20 20 19 19 19 19 19 19 19 19 19 19 18 18 18 18 18 18 18 18 18 18 18 18 18 18 18 18 18 18 18 17 17 17
21 20 19 19 19 19 19 19 19 19 19 19 19 19 19 19 19 19 19 19 18 18 18 18 18 18 18 18 18 18 18 18 18 18 18 18 18 18 18 18 18 17 17
20 20 19 19 19 19 19 19 19 19 19 19 19 19 19 19 19 19 19 18 18 18 18 18 18 18 18 18 18 18 18 18 18 18 18 18 18 18 18 18 18 18 17
20 20 20 19 19 19 19 19 19 19 20 20 19 19 19 19 19 18 18 18 18 18 18 18 18 18 17 17 18 18 18 18 18 18 18 18 18 18 18 18 18 18 18
19 19 19 19 20 20 20 20 20 19 19 19 19 19 18 18 18 18 18 18 18 18 18 17 17 17 17 17 17 17 17 17 18 18 18 18 18 18 18 18 18 18 18
18 18 18 18 19 19 19 19 19 19 19 19 19 19 18 18 18 18 18 18 18 18 17 17 17 17 17 17 17 17 17 17 17 17 17 17 18 18 18 18 18 18 18
18 18 18 18 18 18 18 18 18 18 18 18 18 18 18 18 18 18 18 18 18 17 17 17 17 17 17 17 17 17 17 17 17 17 17 17 17 17 18 18 18 18 18
17 17 17 17 17 17 17 17 17 17 18 17 17 17 17 17 17 17 18 18 18 17 17 17 17 17 16 16 16 16 16 16 16 16 17 17 17 17 17 17 18 18 18
17 17 17 17 17 17 17 17 17 17 17 17 17 17 17 17 17 17 17 18 18 17 17 17 17 16 16 16 16 16 16 16 17 17 17 16 17 17 17 17 17 18 18
16 17 17 17 17 17 16 16 16 16 16 16 16 16 17 17 17 17 17 17 18 18 17 17 17 16 16 16 16 16 16 17 17 16 16 16 16 16 17 17 17 17 17
16 17 17 17 17 16 16 16 16 16 16 16 16 16 16 17 17 17 17 18 18 18 18 17 17 17 16 16 16 16 16 16 16 16 16 16 16 16 16 17 17 17 17
17 17 17 17 17 17 16 16 16 16 16 16 16 16 16 16 17 17 17 17 18 18 18 18 17 17 17 16 16 16 16 16 16 16 16 16 16 16 16 17 17 17 17
17 17 17 17 17 17 16 16 16 16 16 16 16 16 16 16 16 17 17 17 17 17 17 17 17 17 17 16 16 16 16 15 15 15 15 16 15 16 16 16 17 17 17
17 17 17 17 17 17 17 16 16 16 15 15 15 15 15 16 16 16 16 16 16 16 17 17 17 17 17 16 16 16 15 15 15 14 15 15 15 15 16 16 16 17 17
17 17 17 16 16 16 16 16 16 15 15 15 15 15 15 15 15 15 15 16 16 16 16 16 16 16 16 16 16 16 15 15 15 14 14 14 15 15 16 16 16 16 16
Wind_Speed
10 13 22 21 20 19 19 18 18 19 19 20 20 20 20 19 18 16 15 14 13 12 11 10 9 10 10 11 11 12 12 12 12 13 13 13 12 12 13 14 13 13 14
15 18 23 22 21 20 19 18 18 18 18 19 19 19 19 18 17 16 15 14 13 12 11 10 10 9 10 10 10 11 11 11 11 12 12 11 11 11 12 12 12 12 14
15 17 21 22 21 20 19 18 18 18 18 18 18 18 18 17 16 16 15 14 13 12 11 10 10 9 9 9 10 10 10 10 10 10 9 7 8 11 12 12 12 13 13
15 15 19 22 21 20 19 18 18 17 17 17 17 16 16 16 16 15 14 13 12 11 10 10 9 9 9 8 9 9 9 9 9 9 6 5 5 10 11 12 12 13 13
12 14 19 23 22 20 19 18 17 17 17 16 16 15 15 15 14 14 13 12 11 10 10 9 9 9 8 8 8 8 8 8 8 7 5 4 2 7 10 12 13 13 13
12 13 19 24 22 21 19 18 17 16 16 16 15 15 14 14 13 13 12 11 10 10 9 9 8 8 8 8 8 7 7 7 6 4 4 4 4 7 10 12 13 13 14
13 11 17 23 22 21 19 18 17 16 16 15 14 14 14 13 13 13 12 11 11 10 10 9 9 9 9 9 8 8 8 8 6 4 4 5 7 9 11 13 14 14 15
14 10 15 22 21 20 19 17 16 16 15 15 14 14 13 13 13 12 12 12 12 11 11 11 11 10 10 10 9 9 9 8 7 6 6 7 9 11 14 15 16 16 16
11 9 9 15 18 19 18 16 16 15 15 14 14 14 14 14 13 13 13 13 13 12 12 12 12 12 11 11 11 10 10 10 8 6 7 7 9 11 14 16 18 18 18
9 8 6 9 12 13 14 16 15 15 15 14 14 14 14 14 14 14 14 14 14 14 14 14 14 13 13 13 12 12 12 11 9 8 8 9 10 11 14 16 18 19 20
10 8 7 7 7 9 10 12 14 14 14 14 14 15 15 13 12 13 14 15 15 15 15 15 15 15 15 14 14 14 13 10 10 9 10 12 14 14 15 17 19 21 21
13 11 7 7 6 6 7 6 7 8 9 11 11 11 12 11 12 13 13 16 17 17 17 18 18 17 16 12 13 14 12 12 11 11 12 15 16 17 16 17 19 22 23
9 8 6 5 4 4 2 2 3 5 6 8 10 11 11 10 10 12 10 12 14 15 14 15 15 14 13 11 11 11 12 12 11 11 13 16 17 17 17 17 19 21 23
9 7 6 6 5 4 2 2 3 4 5 7 11 13 11 7 7 8 8 10 11 11 10 10 9 11 12 13 12 11 11 10 11 11 13 17 18 18 17 17 17 19 21
9 8 8 7 6 4 4 4 4 5 6 9 11 13 13 8 9 7 7 9 10 11 9 7 6 7 7 8 9 9 9 10 11 11 11 15 17 17 17 16 16 17 17
8 8 7 7 7 7 6 6 6 6 7 8 9 12 14 12 8 9 8 7 8 10 9 7 4 5 5 4 6 6 7 8 9 10 11 13 16 17 17 17 16 16 17
5 4 4 4 3 4 6 7 6 6 6 6 8 11 13 13 10 8 7 7 7 9 8 5 4 3 3 3 4 5 5 6 7 8 10 10 12 14 16 16 17 17 18
3 1 1 1 3 4 5 6 6 6 6 6 7 9 12 14 13 8 8 8 7 6 4 4 3 3 3 3 3 3 4 4 6 7 8 9 10 11 13 16 16 17 18
3 2 3 3 4 5 4 5 6 5 6 5 5 6 8 10 11 8 8 7 6 4 4 4 3 3 3 3 3 4 4 4 5 6 7 8 9 10 11 13 16 17 18
3 3 3 4 4 4 4 4 3 4 4 3 2 3 5 7 8 7 6 6 5 4 4 4 3 2 2 3 3 3 3 4 4 5 6 5 6 8 9 10 11 12 16
3 4 3 4 5 4 3 2 3 2 3 2 2 2 4 5 5 5 6 6 6 6 6 6 4 3 3 2 1 2 2 2 3 3 3 2 3 4 6 7 8 9 10
5 5 4 5 5 5 3 2 2 2 2 1 2 3 4 4 4 5 6 6 6 5 5 6 4 3 2 3 3 1 2 3 2 1 1 1 1 2 3 5 6 8 9
5 5 5 4 4 4 4 2 2 2 2 3 4 4 4 3 4 4 6 6 6 6 7 7 6 6 5 3 2 3 2 2 2 2 2 2 3 3 4 4 5 6 7
4 4 3 3 4 4 4 4 4 3 3 3 3 3 5 5 3 2 3 4 5 5 6 6 7 5 5 4 2 2 2 3 2 2 2 2 4 4 5 5 5 5 5
5 4 3 2 2 2 3 4 4 3 1 1 2 4 5 5 5 4 2 2 3 4 5 6 6 6 5 5 4 3 2 2 2 2 3 3 3 4 5 5 4 4 4
6 5 5 3 3 2 0 1 2 2 1 0 1 2 3 3 3 5 4 2 3 4 5 6 7 8 7 6 5 5 4 3 4 4 4 3 3 3 4 4 3 3 4
Wind_Direction
169 165 171 163 157 152 148 145 142 139 136 136 137 140 144 147 150 152 154 155 154 153 150 144 137 131 128 126 126 125 125 126 127 129 129 128 126 121 119 117 116 118 119
157 162 168 163 158 154 150 148 145 142 140 140 142 145 148 151 154 156 157 157 157 156 153 149 145 140 136 134 133 132 132 134 135 136 135 134 137 134 127 125 125 128 126
149 159 165 162 159 155 152 150 148 146 145 145 147 149 152 155 158 159 160 161 161 159 156 154 151 147 144 141 140 139 140 141 142 141 131 122 138 145 142 139 138 135 133
146 155 160 161 159 157 154 153 152 151 151 151 152 155 157 160 162 164 164 165 164 163 161 160 159 156 153 151 149 148 148 147 148 141 126 127 140 153 155 152 149 146 143
144 153 162 162 160 159 158 157 157 157 158 159 160 161 163 166 168 170 171 171 172 172 172 171 170 166 164 163 162 161 160 159 160 148 148 157 161 165 165 164 163 159 155
146 153 165 163 163 162 162 162 163 164 166 167 168 169 171 173 176 178 179 182 183 184 184 185 184 181 180 179 179 180 180 182 180 160 171 192 199 189 182 180 178 173 168
149 155 167 165 165 166 166 167 168 170 173 176 177 179 180 182 186 187 189 191 194 196 198 198 200 198 198 199 199 199 200 204 194 199 217 220 216 215 207 199 193 187 181
152 153 165 167 168 169 171 172 174 177 180 184 187 189 191 193 196 198 200 202 204 206 209 210 211 213 213 215 217 217 217 221 222 216 225 231 231 227 217 210 203 197 192
147 147 157 166 170 173 175 178 181 184 188 192 196 198 201 204 207 209 211 214 216 219 221 223 224 226 227 228 231 233 233 234 232 224 234 235 236 231 222 214 209 205 200
142 146 147 155 162 168 177 184 188 193 197 201 205 209 212 215 217 220 221 225 227 229 231 233 235 236 237 238 240 243 246 247 244 237 241 244 244 241 234 224 216 212 208
159 159 151 148 152 159 171 189 196 203 208 211 216 219 221 224 228 231 232 233 237 239 240 241 241 242 242 243 244 245 248 245 243 242 241 244 245 243 240 234 225 218 214
174 175 164 154 147 149 175 189 202 210 215 218 220 227 228 225 230 236 241 243 244 246 247 247 244 243 243 241 243 247 245 241 240 244 244 244 244 242 241 238 232 225 219
166 171 165 153 138 145 156 169 206 218 221 224 226 228 233 231 232 237 240 247 252 254 254 252 249 241 235 231 232 234 239 243 242 245 247 248 246 243 241 239 235 230 225
143 150 142 142 143 154 160 208 218 221 224 227 229 227 226 231 231 232 236 239 243 248 252 249 242 238 234 233 232 234 238 241 243 246 249 253 252 248 244 240 236 232 230
138 144 144 140 147 160 181 215 226 231 227 230 230 228 225 227 233 231 233 236 239 242 243 242 239 238 236 236 235 236 239 242 244 245 250 257 259 254 248 244 237 233 233
136 145 150 161 177 183 199 215 223 227 238 237 234 232 229 230 229 230 231 231 235 236 237 237 238 234 234 230 237 235 239 244 247 249 251 259 262 258 254 250 243 237 237
126 143 158 191 226 230 227 236 237 240 237 234 232 233 232 232 231 230 231 234 233 230 229 228 228 219 223 225 237 242 242 243 248 252 255 255 259 261 258 253 248 244 243
83 81 248 256 275 267 257 253 249 249 242 241 240 235 235 234 229 225 227 230 223 214 208 205 195 194 210 216 228 241 239 240 247 252 253 252 251 255 257 254 252 246 243
36 359 310 299 288 291 287 264 258 251 240 238 243 244 243 238 230 223 224 220 204 197 198 199 180 179 193 208 229 241 243 242 248 255 254 252 250 252 255 257 255 251 246
31 9 336 319 322 315 305 301 278 261 257 254 247 251 254 243 229 217 219 202 185 186 190 184 174 180 193 202 238 257 262 262 260 255 258 260 256 256 257 256 255 253 249
28 35 11 4 349 343 332 335 318 303 294 296 282 266 255 245 227 205 214 197 186 190 191 182 169 178 194 176 183 294 302 276 261 247 254 257 266 271 268 262 255 250 249
24 26 27 17 359 356 336 301 275 281 289 316 336 337 302 269 243 216 211 203 193 186 183 183 171 165 181 179 169 153 330 334 330 351 310 269 304 311 302 291 270 254 247
20 19 25 16 10 8 355 332 335 348 352 7 7 351 327 298 251 232 215 207 200 191 193 193 183 173 182 196 191 163 170 228 297 318 319 321 322 313 308 304 293 275 257
353 356 11 14 23 26 32 48 53 41 21 355 343 337 342 351 347 298 242 217 208 205 204 201 194 183 168 183 200 207 192 171 188 301 313 314 313 303 306 310 308 298 285
319 322 322 335 11 28 53 73 81 76 50 328 344 357 360 0 6 3 328 260 238 227 219 208 196 195 188 180 180 175 186 201 197 215 272 307 314 297 299 307 311 314 313
296 292 284 286 288 285 358 115 130 137 157 12 358 355 349 345 355 5 357 331 277 253 236 223 210 204 202 196 192 185 177 177 189 199 231 265 294 294 303 306 320 332 338
Height
1495 1501 1505 1509 1513 1516 1518 1521 1523 1525 1527 1529 1531 1533 1535 1536 1538 1539 1540 1541 1542 1544 1545 1546 1547 1547 1548 1548 1549 1549 1550 1550 1551 1551 1552 1552 1553 1554 1555 1555 1556 1557 1558
1493 1499 1504 1509 1512 1516 1518 1521 1523 1526 1528 1530 1532 1533 1535 1537 1538 1540 1541 1542 1543 1545 1546 1547 1547 1548 1549 1549 1550 1550 1551 1552 1552 1552 1553 1554 1555 1556 1557 1557 1558 1559 1560
1494 1499 1504 1509 1513 1516 1519 1521 1524 1526 1528 1530 1532 1534 1536 1537 1539 1541 1542 1543 1544 1545 1547 1547 1548 1549 1550 1550 1551 1552 1552 1553 1553 1554 1555 1555 1556 1557 1558 1559 1560 1561 1562
1496 1500 1505 1509 1513 1516 1519 1522 1524 1526 1528 1530 1532 1534 1536 1538 1540 1541 1543 1544 1545 1546 1547 1548 1549 1550 1551 1551 1552 1553 1553 1554 1555 1555 1556 1557 1557 1559 1560 1561 1561 1562 1563
1498 1502 1506 1510 1514 1517 1520 1522 1524 1527 1529 1531 1533 1534 1536 1538 1540 1541 1543 1544 1546 1547 1548 1549 1549 1550 1551 1552 1553 1553 1554 1555 1556 1556 1557 1558 1558 1559 1560 1561 1563 1564 1564
1499 1503 1507 1510 1514 1517 1520 1522 1524 1527 1529 1531 1533 1535 1536 1538 1540 1541 1543 1544 1546 1547 1548 1549 1550 1551 1552 1553 1553 1554 1555 1555 1556 1557 1558 1558 1559 1560 1561 1562 1563 1564 1565
1499 1503 1507 1511 1515 1518 1520 1523 1525 1527 1529 1531 1533 1535 1537 1538 1540 1541 1543 1544 1546 1547 1548 1549 1550 1551 1552 1553 1553 1554 1555 1555 1556 1557 1558 1558 1559 1560 1561 1562 1563 1564 1565
1500 1504 1508 1512 1516 1519 1521 1524 1526 1528 1530 1532 1534 1535 1537 1539 1540 1542 1543 1544 1545 1546 1547 1548 1549 1550 1551 1552 1553 1553 1554 1554 1555 1556 1557 1558 1559 1559 1560 1561 1562 1563 1565
1502 1505 1509 1513 1516 1519 1522 1525 1527 1529 1530 1532 1534 1535 1537 1539 1540 1541 1542 1543 1544 1545 1546 1547 1547 1548 1549 1550 1551 1552 1552 1553 1554 1554 1555 1556 1557 1558 1559 1559 1561 1562 1564
1503 1507 1510 1513 1516 1519 1522 1524 1526 1528 1530 1532 1534 1535 1537 1538 1539 1540 1541 1542 1543 1543 1544 1545 1545 1546 1547 1548 1548 1549 1550 1551 1551 1552 1553 1554 1555 1556 1557 1558 1559 1560 1562
1503 1506 1509 1513 1516 1519 1521 1524 1526 1528 1529 1531 1533 1534 1536 1537 1538 1539 1540 1540 1541 1541 1542 1542 1543 1544 1544 1545 1546 1547 1547 1548 1548 1549 1550 1551 1552 1553 1554 1555 1557 1558 1559
1501 1505 1509 1512 1515 1518 1521 1523 1525 1526 1528 1529 1531 1532 1533 1534 1536 1537 1537 1538 1539 1539 1540 1540 1541 1541 1541 1542 1543 1544 1544 1545 1545 1546 1546 1547 1548 1549 1550 1552 1553 1555 1556
1502 1506 1509 1512 1515 1518 1520 1522 1523 1524 1526 1527 1528 1530 1531 1531 1533 1533 1534 1535 1536 1536 1537 1537 1538 1538 1538 1539 1540 1540 1541 1541 1542 1542 1543 1544 1545 1546 1546 1547 1549 1551 1553
1502 1505 1509 1512 1514 1517 1519 1521 1521 1521 1522 1523 1525 1526 1527 1528 1529 1530 1531 1532 1532 1533 1534 1534 1534 1534 1535 1536 1536 1536 1537 1537 1538 1538 1539 1540 1541 1542 1543 1543 1545 1547 1549
1503 1506 1508 1511 1513 1514 1516 1517 1518 1518 1518 1519 1519 1520 1522 1523 1524 1526 1526 1528 1528 1529 1530 1530 1530 1531 1531 1532 1532 1532 1533 1533 1534 1534 1535 1536 1537 1538 1538 1539 1540 1542 1544
1504 1506 1508 1509 1510 1511 1511 1511 1511 1512 1513 1514 1514 1515 1517 1518 1520 1521 1522 1523 1524 1525 1525 1526 1526 1526 1527 1527 1528 1528 1528 1529 1529 1530 1530 1531 1532 1533 1534 1534 1536 1538 1539
1505 1506 1507 1509 1509 1508 1507 1506 1506 1506 1507 1508 1509 1510 1511 1513 1515 1517 1517 1518 1519 1520 1521 1521 1521 1522 1522 1523 1523 1523 1524 1524 1524 1525 1525 1526 1527 1528 1528 1529 1531 1532 1534
1504 1506 1506 1507 1506 1505 1503 1502 1500 1500 1499 1500 1501 1503 1506 1507 1509 1512 1513 1513 1515 1516 1516 1516 1517 1517 1518 1518 1519 1519 1519 1519 1519 1520 1520 1520 1521 1522 1523 1524 1525 1526 1528
1503 1504 1504 1503 1503 1502 1499 1496 1494 1493 1493 1493 1494 1496 1498 1501 1504 1506 1508 1509 1511 1511 1512 1513 1513 1513 1514 1514 1514 1514 1514 1514 1514 1515 1515 1515 1515 1516 1517 1518 1519 1520 1522
1501 1501 1501 1500 1499 1497 1495 1493 1491 1489 1488 1488 1489 1491 1493 1496 1499 1501 1504 1505 1506 1507 1508 1509 1509 1510 1510 1510 1510 1510 1510 1509 1509 1509 1509 1510 1510 1511 1511 1512 1513 1514 1516
1501 1500 1499 1498 1497 1495 1493 1491 1490 1487 1486 1486 1486 1488 1489 1492 1495 1498 1501 1502 1503 1504 1505 1505 1506 1506 1506 1506 1507 1506 1505 1504 1504 1504 1505 1505 1506 1506 1507 1507 1508 1509 1510
1500 1499 1499 1498 1497 1495 1493 1491 1490 1488 1486 1486 1486 1486 1487 1489 1492 1495 1497 1498 1500 1501 1501 1502 1502 1502 1502 1503 1503 1503 1502 1502 1501 1501 1501 1502 1502 1502 1503 1503 1503 1504 1506
1501 1500 1499 1498 1496 1495 1493 1491 1490 1488 1486 1485 1484 1485 1486 1487 1488 1491 1493 1494 1496 1497 1498 1498 1498 1499 1499 1500 1500 1500 1499 1498 1498 1498 1498 1499 1499 1499 1499 1499 1499 1500 1501
1503 1502 1500 1499 1497 1494 1492 1490 1489 1487 1485 1484 1483 1483 1484 1484 1485 1486 1488 1490 1491 1493 1494 1494 1495 1495 1496 1496 1496 1496 1496 1496 1496 1495 1496 1496 1496 1496 1495 1495 1495 1496 1497
1505 1503 1502 1500 1497 1494 1492 1490 1488 1486 1485 1483 1482 1481 1480 1480 1480 1481 1482 1484 1485 1487 1488 1489 1490 1491 1492 1492 1493 1492 1493 1493 1493 1493 1492 1492 1492 1492 1492 1491 1491 1492 1493
1506 1504 1502 1499 1497 1494 1491 1489 1487 1485 1483 1481 1479 1478 1477 1477 1477 1477 1477 1478 1479 1480 1482 1484 1485 1486 1487 1488 1489 1489 1489 1489 1489 1490 1489 1489 1488 1489 1488 1488 1488 1488 1489